| time (UTC) | temp F | wind direction | speed knots | gust knots | rain 1hr in | rain 24hr in | rain mn in | humidity % | barometer mb |
| 20260504044545 | 65 | 131 | 0.9 | 0.0 | 0.00 | 0.00 | 0.00 | 65 | 1015.5 |
| 20260504043050 | 65 | 122 | 0.9 | 0.0 | 0.00 | 0.00 | 0.00 | 64 | 1015.7 |
| 20260504041545 | 65 | 135 | 0.0 | 0.0 | 0.00 | 0.00 | 0.00 | 62 | 1015.6 |
| 20260504040044 | 64 | 111 | 0.9 | 0.0 | 0.00 | 0.00 | 0.00 | 62 | 1015.8 |
| 20260504034543 | 65 | 140 | 0.0 | 0.0 | 0.00 | 0.00 | 0.00 | 60 | 1015.7 |
| 20260504033043 | 65 | 140 | 0.0 | 0.0 | 0.00 | 0.00 | 0.00 | 58 | 1015.6 |
| 20260504031542 | 65 | 141 | 0.0 | 0.0 | 0.00 | 0.00 | 0.00 | 57 | 1015.6 |
| 20260504030042 | 66 | 148 | 0.0 | 0.0 | 0.00 | 0.00 | 0.00 | 58 | 1015.7 |
| 20260504024544 | 66 | 148 | 0.0 | 0.0 | 0.00 | 0.00 | 0.00 | 57 | 1015.6 |
| 20260504023041 | 66 | 158 | 0.0 | 0.0 | 0.00 | 0.00 | 0.00 | 57 | 1015.5 |
| 20260504021540 | 66 | 133 | 0.0 | 0.0 | 0.00 | 0.00 | 0.00 | 56 | 1015.6 |
| 20260504020117 | 67 | 133 | 0.0 | 0.0 | 0.00 | 0.00 | 0.00 | 55 | 1015.5 |
| 20260504014554 | 68 | 133 | 0.0 | 0.0 | 0.00 | 0.00 | 0.00 | 54 | 1015.1 |
| 20260504013048 | 69 | 133 | 0.0 | 0.0 | 0.00 | 0.00 | 0.00 | 51 | 1015.0 |
| 20260504011539 | 71 | 141 | 0.0 | 0.0 | 0.00 | 0.00 | 0.00 | 48 | 1015.1 |
| 20260504010043 | 71 | 145 | 0.0 | 0.0 | 0.00 | 0.00 | 0.00 | 48 | 1015.1 |
| 20260504004553 | 72 | 148 | 0.9 | 0.0 | 0.00 | 0.00 | 0.00 | 45 | 1015.0 |
| 20260504003037 | 73 | 126 | 0.9 | 0.0 | 0.00 | 0.00 | 0.00 | 46 | 1015.0 |
| 20260504001548 | 74 | 172 | 0.9 | 0.0 | 0.00 | 0.00 | 0.00 | 45 | 1015.2 |
| 20260504000033 | 74 | 144 | 1.7 | 0.0 | 0.00 | 0.00 | 0.00 | 44 | 1015.5 |
| 20260503234534 | 75 | 207 | 0.9 | 0.0 | 0.00 | 0.00 | 0.00 | 43 | 1015.5 |
| 20260503233038 | 76 | 159 | 1.7 | 0.0 | 0.00 | 0.00 | 0.00 | 42 | 1015.7 |
| 20260503231533 | 76 | 131 | 0.9 | 0.0 | 0.00 | 0.00 | 0.00 | 44 | 1015.7 |
| 20260503230033 | 76 | 140 | 1.7 | 0.0 | 0.00 | 0.00 | 0.00 | 42 | 1015.5 |
| 20260503224529 | 77 | 124 | 2.6 | 0.0 | 0.00 | 0.00 | 0.00 | 41 | 1015.6 |
| 20260503223027 | 78 | 165 | 2.6 | 0.0 | 0.00 | 0.00 | 0.00 | 38 | 1016.0 |
| 20260503221526 | 79 | 117 | 1.7 | 0.0 | 0.00 | 0.00 | 0.00 | 39 | 1016.1 |
| 20260503220031 | 79 | 210 | 2.6 | 0.0 | 0.00 | 0.00 | 0.00 | 38 | 1016.3 |
| 20260503214524 | 78 | 226 | 1.7 | 0.0 | 0.00 | 0.00 | 0.00 | 39 | 1016.4 |
| 20260503213021 | 79 | 116 | 2.6 | 0.0 | 0.00 | 0.00 | 0.00 | 38 | 1016.8 |
| 20260503211521 | 78 | 104 | 3.5 | 0.0 | 0.00 | 0.00 | 0.00 | 37 | 1017.0 |
| 20260503210017 | 79 | 226 | 2.6 | 0.0 | 0.00 | 0.00 | 0.00 | 38 | 1017.4 |
| 20260503204516 | 79 | 172 | 3.5 | 0.0 | 0.00 | 0.00 | 0.00 | 38 | 1017.6 |
| 20260503203035 | 79 | 118 | 1.7 | 0.0 | 0.00 | 0.00 | 0.00 | 37 | 1017.8 |
| 20260503201513 | 80 | 120 | 2.6 | 0.0 | 0.00 | 0.00 | 0.00 | 37 | 1018.2 |
| 20260503200012 | 80 | 143 | 1.7 | 0.0 | 0.00 | 0.00 | 0.00 | 36 | 1018.4 |
| 20260503194514 | 79 | 207 | 2.6 | 0.0 | 0.00 | 0.00 | 0.00 | 40 | 1018.6 |
| 20260503193006 | 79 | 162 | 3.5 | 0.0 | 0.00 | 0.00 | 0.00 | 36 | 1018.9 |
| 20260503191505 | 79 | 142 | 2.6 | 0.0 | 0.00 | 0.00 | 0.00 | 40 | 1018.9 |
| 20260503190004 | 79 | 218 | 2.6 | 0.0 | 0.00 | 0.00 | 0.00 | 40 | 1019.2 |
| 20260503184605 | 79 | 168 | 2.6 | 0.0 | 0.00 | 0.00 | 0.00 | 40 | 1019.5 |
| 20260503183102 | 80 | 270 | 1.7 | 0.0 | 0.00 | 0.00 | 0.00 | 42 | 1019.6 |
| 20260503181601 | 79 | 221 | 2.6 | 0.0 | 0.00 | 0.00 | 0.00 | 40 | 1019.9 |
| 20260503180056 | 78 | 118 | 1.7 | 0.0 | 0.00 | 0.00 | 0.00 | 41 | 1020.3 |
| 20260503174552 | 77 | 253 | 2.6 | 0.0 | 0.00 | 0.00 | 0.00 | 43 | 1020.6 |
| 20260503173052 | 77 | 101 | 2.6 | 0.0 | 0.00 | 0.00 | 0.00 | 45 | 1020.7 |
| 20260503171550 | 77 | 153 | 1.7 | 0.0 | 0.00 | 0.00 | 0.00 | 41 | 1020.9 |
| 20260503081545 | 52 | 132 | 0.0 | 0.0 | 0.00 | 0.00 | 0.00 | 87 | 1019.8 |
| 20260503071532 | 52 | 132 | 0.0 | 0.0 | 0.00 | 0.00 | 0.00 | 86 | 1020.1 |